Kalamazoo, MI

8:21 PM EST on December 13, 2017 (GMT -0500)
Kalamazoo-Battle Creek International

Weather History for KAZO - March, 2014

Change the Weather History Date:

Monday, March 17, 2014

  Actual Average Record
Temperature  
Mean Temperature 20 °F 37 °F  
Max Temperature 33 °F 46 °F 79 °F (2012)
Min Temperature 7 °F 28 °F 7 °F (2014)
Degree Days  
Heating Degree Days 45 28  
Month to date heating degree days 707 533  
Since 1 July heating degree days 5875 5306  
Cooling Degree Days 0 0  
Month to date cooling degree days 0 0  
Year to date cooling degree days 0 0  
Moisture  
Dew Point 6 °F    
Average Humidity 56    
Maximum Humidity 73    
Minimum Humidity 39    
Precipitation  
Precipitation 0.00 in 0.06 in 0.70 in (1965)
Month to date precipitation 0.55 1.21  
Year to date precipitation 3.08 4.45  
Sea Level Pressure  
Sea Level Pressure 30.03 in    
Wind  
Wind Speed 7 mph (ESE)    
Max Wind Speed 13 mph    
Max Gust Speed 18 mph    
Visibility 10 miles    
Events      
T = Trace of Precipitation, MM = Missing Value Source: NWS Daily Summary

Daily Weather History Graph

Daily Weather History Graph

Search for Another Location

Airport or City:

Trip Planner

Search our weather history database for the weather conditions in past years. The results will help you decide how hot, cold, wet, or windy it might be!

Date:

Astronomy

Mar. 17, 2014 Rise Set
Actual Time 7:50 AM EDT 7:51 PM EDT
Civil Twilight 7:22 AM EDT 8:18 PM EDT
Nautical Twilight 6:50 AM EDT 8:51 PM EDT
Astronomical Twilight 6:17 AM EDT 9:24 PM EDT
Moon 9:09 PM EDT (3/17) 8:04 AM EDT (3/17)
Length of Visible Light 12h 56m
Length of Day
12h 00m
Full, 99% of the Moon is Illuminated
Mar 17
Full
Mar 23
Last Quarter
Mar 30
New
Apr 7
First Quarter
Apr 15
Full

Hourly Weather History & Observations

Time (EDT) Temp. Windchill Dew Point Humidity Pressure Visibility Wind Dir Wind Speed Gust Speed Precip Events Conditions
12:53 AM 12.9 °F 5.2 °F 3.9 °F 67% 30.20 in 10.0 mi NE 4.6 mph - N/A   Clear
1:53 AM 10.9 °F 0.2 °F 3.0 °F 70% 30.20 in 10.0 mi North 6.9 mph - N/A   Clear
2:53 AM 10.9 °F 4.7 °F 1.9 °F 67% 30.18 in 10.0 mi ENE 3.5 mph - N/A   Clear
3:53 AM 10.0 °F - 1.0 °F 67% 30.15 in 10.0 mi Calm Calm - N/A   Clear
4:53 AM 10.0 °F 1.8 °F -0.0 °F 64% 30.12 in 10.0 mi ENE 4.6 mph - N/A   Clear
5:53 AM 9.0 °F 0.6 °F -0.0 °F 67% 30.11 in 10.0 mi NE 4.6 mph - N/A   Clear
6:53 AM 8.1 °F 1.4 °F -0.9 °F 67% 30.09 in 10.0 mi East 3.5 mph - N/A   Clear
7:53 AM 7.0 °F -3.3 °F -2.9 °F 64% 30.09 in 10.0 mi ESE 5.8 mph - N/A   Clear
8:53 AM 10.0 °F 0.4 °F -0.9 °F 61% 30.08 in 10.0 mi East 5.8 mph - N/A   Clear
9:53 AM 14.0 °F 3.9 °F 1.0 °F 56% 30.06 in 10.0 mi East 6.9 mph - N/A   Clear
10:53 AM 17.1 °F 7.6 °F 3.0 °F 54% 30.06 in 10.0 mi ESE 6.9 mph - N/A   Clear
11:53 AM 19.9 °F 10.1 °F 3.9 °F 50% 30.04 in 10.0 mi ESE 8.1 mph - N/A   Clear
12:53 PM 24.1 °F 13.7 °F 6.1 °F 46% 30.03 in 10.0 mi ESE 10.4 mph - N/A   Clear
1:53 PM 27.0 °F 17.3 °F 8.1 °F 45% 29.99 in 10.0 mi ESE 10.4 mph - N/A   Clear
2:53 PM 28.9 °F 20.4 °F 10.0 °F 45% 29.96 in 10.0 mi East 9.2 mph - N/A   Clear
3:53 PM 30.9 °F 22.8 °F 10.9 °F 43% 29.94 in 10.0 mi East 9.2 mph - N/A   Clear
4:53 PM 32.0 °F 24.8 °F 10.0 °F 40% 29.92 in 10.0 mi SE 8.1 mph - N/A   Clear
5:53 PM 32.0 °F 24.2 °F 12.0 °F 44% 29.91 in 10.0 mi SE 9.2 mph - N/A   Clear
6:53 PM 32.0 °F 25.6 °F 10.9 °F 42% 29.91 in 10.0 mi South 6.9 mph - N/A   Clear
7:53 PM 30.0 °F 21.7 °F 10.0 °F 43% 29.91 in 10.0 mi SE 9.2 mph - N/A   Clear
8:53 PM 28.9 °F 22.8 °F 12.9 °F 51% 29.94 in 10.0 mi South 5.8 mph - N/A   Clear
9:53 PM 27.0 °F 21.6 °F 12.9 °F 56% 29.95 in 10.0 mi ESE 4.6 mph - N/A   Clear
10:53 PM 27.0 °F 18.7 °F 15.1 °F 61% 29.94 in 10.0 mi ESE 8.1 mph - N/A   Mostly Cloudy
11:53 PM 25.0 °F 17.1 °F 14.0 °F 63% 29.93 in 10.0 mi ESE 6.9 mph - N/A   Clear